Location: Kielce
(50.8833°N, 20.6167°E)
Time: 20:49:17
(UTC+02:00)

SR - Pass Details

Date: 28 April 2021
Orbit: 573 x 882 km, 66.7° (Epoch: 08 May)

Event Time Altitude Azimuth Distance (km) Brightness Sun altitude
Rises 10:30:48 0° 301° (WNW) 3,482 ? 45.6°
Reaches altitude 10° 10:34:17 10° 321° (NW) 2,550 ? 46.0°
Maximum altitude 10:38:04 17° 1° (N) 2,084 ? 46.4°
Drops below altitude 10° 10:41:48 10° 40° (NE) 2,516 ? 46.9°
Sets 10:45:12 0° 61° (ENE) 3,416 ? 47.2°
